Orr, MN

2:25 AM CDT on April 30, 2017 (GMT -0500)
Orr Regional

Weather History for KORB - March, 2013

Change the Weather History Date:

Monday, March 25, 2013

  Actual Average Record
Temperature  
Mean Temperature 22 °F -  
Max Temperature 37 °F 37 °F 59 °F (2004)
Min Temperature 6 °F 17 °F -13 °F (2001)
Degree Days  
Heating Degree Days 44    
Moisture  
Dew Point 12 °F    
Average Humidity 66    
Maximum Humidity 93    
Minimum Humidity 36    
Precipitation  
Precipitation 0.00 in - - ()
Sea Level Pressure  
Sea Level Pressure 30.12 in    
Wind  
Wind Speed 2 mph (NW)    
Max Wind Speed 12 mph    
Max Gust Speed 16 mph    
Visibility 10 miles    
Events      
Averages and records for this station are not official NWS values.
T = Trace of Precipitation, MM = Missing Value Source: NWS Daily Summary

Daily Weather History Graph

Daily Weather History Graph

Search for Another Location

Airport or City:

Trip Planner

Search our weather history database for the weather conditions in past years. The results will help you decide how hot, cold, wet, or windy it might be!

Date:

Astronomy

Mar. 25, 2013 Rise Set
Actual Time 7:03 AM CDT 7:31 PM CDT
Civil Twilight 6:32 AM CDT 8:03 PM CDT
Nautical Twilight 5:55 AM CDT 8:40 PM CDT
Astronomical Twilight 5:17 AM CDT 9:18 PM CDT
Moon 6:00 PM CDT (3/25) 5:53 AM CDT (3/25)
Length of Visible Light 13h 30m
Length of Day
12h 28m
Waxing Gibbous, 96% of the Moon is Illuminated
Mar 25
Waxing Gibbous
Mar 27
Full
Apr 2
Last Quarter
Apr 10
New
Apr 18
First Quarter

Hourly Weather History & Observations

Time (CDT) Temp. Windchill Dew Point Humidity Pressure Visibility Wind Dir Wind Speed Gust Speed Precip Events Conditions
12:13 AM 15.8 °F - 10.4 °F 79% 30.08 in 10.0 mi Calm Calm - N/A   Clear
12:33 AM 14.0 °F - 10.4 °F 86% 30.08 in 10.0 mi Calm Calm - N/A   Clear
12:53 AM 12.2 °F - 10.4 °F 92% 30.08 in 10.0 mi Calm Calm - N/A   Clear
1:13 AM 12.2 °F - 10.4 °F 92% 30.08 in 10.0 mi Calm Calm - N/A   Clear
1:33 AM 12.2 °F - 10.4 °F 92% 30.08 in 10.0 mi Calm Calm - N/A   Clear
1:53 AM 12.2 °F - 8.6 °F 85% 30.08 in 10.0 mi Calm Calm - N/A   Clear
2:13 AM 12.2 °F - 8.6 °F 85% 30.08 in 10.0 mi Calm Calm - N/A   Clear
2:33 AM 12.2 °F - 8.6 °F 85% 30.07 in 10.0 mi Calm Calm - N/A   Clear
2:53 AM 10.4 °F - 8.6 °F 92% 30.07 in 10.0 mi Calm Calm - N/A   Clear
3:13 AM 10.4 °F - 6.8 °F 85% 30.07 in 10.0 mi Calm Calm - N/A   Clear
3:33 AM 8.6 °F - 6.8 °F 92% 30.07 in 10.0 mi Calm Calm - N/A   Clear
3:53 AM 10.4 °F - 6.8 °F 85% 30.07 in 10.0 mi Calm Calm - N/A   Clear
4:13 AM 10.4 °F - 6.8 °F 85% 30.07 in 10.0 mi Calm Calm - N/A   Clear
4:53 AM 8.6 °F - 5.0 °F 85% 30.07 in 10.0 mi Calm Calm - N/A   Clear
5:13 AM 8.6 °F - 5.0 °F 85% 30.08 in 10.0 mi Calm Calm - N/A   Clear
5:33 AM 8.6 °F - 5.0 °F 85% 30.09 in 10.0 mi Calm Calm - N/A   Clear
5:53 AM 6.8 °F - 3.2 °F 85% 30.09 in 10.0 mi Calm Calm - N/A   Clear
6:13 AM 6.8 °F - 3.2 °F 85% 30.10 in 10.0 mi Calm Calm - N/A   Clear
6:33 AM 6.8 °F - 3.2 °F 85% 30.10 in 10.0 mi Calm Calm - N/A   Clear
6:53 AM 6.8 °F - 1.4 °F 79% 30.11 in 10.0 mi Calm Calm - N/A   Clear
7:13 AM 6.8 °F - 1.4 °F 79% 30.11 in 10.0 mi Calm Calm - N/A   Clear
7:33 AM 6.8 °F - 1.4 °F 79% 30.12 in 10.0 mi Calm Calm - N/A   Clear
7:53 AM 6.8 °F - 3.2 °F 85% 30.12 in 10.0 mi Calm Calm - N/A   Clear
8:13 AM 8.6 °F - 3.2 °F 79% 30.13 in 10.0 mi Calm Calm - N/A   Clear
8:33 AM 10.4 °F - 6.8 °F 85% 30.13 in 10.0 mi North - - N/A   Clear
8:53 AM 12.2 °F - 8.6 °F 85% 30.13 in 10.0 mi Calm Calm - N/A   Clear
9:13 AM 14.0 °F 8.2 °F 10.4 °F 86% 30.13 in 10.0 mi NW 3.5 mph - N/A   Clear
9:33 AM 15.8 °F 8.6 °F 12.2 °F 86% 30.13 in 10.0 mi NW 4.6 mph - N/A   Clear
9:53 AM 17.6 °F 10.7 °F 15.8 °F 93% 30.14 in 10.0 mi NW 4.6 mph - N/A   Clear
10:13 AM 19.4 °F 11.5 °F 14.0 °F 80% 30.14 in 10.0 mi WNW 5.8 mph - N/A   Clear
10:33 AM 21.2 °F 13.6 °F 14.0 °F 74% 30.14 in 10.0 mi WNW 5.8 mph - N/A   Clear
10:53 AM 24.8 °F 17.9 °F 14.0 °F 64% 30.14 in 10.0 mi WNW 5.8 mph - N/A   Clear
11:15 AM 26.6 °F 19.1 °F 15.8 °F 64% 30.14 in 10.0 mi NW 6.9 mph - N/A   Clear
11:33 AM 28.4 °F 21.2 °F 15.8 °F 59% 30.14 in 10.0 mi NW 6.9 mph - N/A   Clear
11:53 AM 28.4 °F 19.7 °F 15.8 °F 59% 30.14 in 10.0 mi NW 9.2 mph - N/A   Scattered Clouds
12:13 PM 30.2 °F 21.3 °F 14.0 °F 51% 30.13 in 10.0 mi NW 10.4 mph 16.1 mph N/A   Clear
12:33 PM 30.2 °F 21.3 °F 14.0 °F 51% 30.13 in 10.0 mi NW 10.4 mph - N/A   Scattered Clouds
12:53 PM 32.0 °F 24.2 °F 14.0 °F 48% 30.13 in 10.0 mi NW 9.2 mph - N/A   Clear
1:13 PM 32.0 °F 25.6 °F 14.0 °F 48% 30.13 in 10.0 mi NW 6.9 mph - N/A   Clear
1:33 PM 33.8 °F 25.3 °F 14.0 °F 44% 30.12 in 10.0 mi NW 11.5 mph 16.1 mph N/A   Clear
1:53 PM 33.8 °F 29.6 °F 14.0 °F 44% 30.13 in 10.0 mi North 4.6 mph - N/A   Clear
2:13 PM 33.8 °F 27.0 °F 14.0 °F 44% 30.12 in 10.0 mi NW 8.1 mph - N/A   Clear
2:33 PM 35.6 °F 30.7 °F 12.2 °F 38% 30.12 in 10.0 mi NNW 5.8 mph - N/A   Clear
2:53 PM 35.6 °F 29.2 °F 14.0 °F 41% 30.12 in 10.0 mi NW 8.1 mph - N/A   Clear
3:13 PM 35.6 °F 28.6 °F 15.8 °F 44% 30.11 in 10.0 mi WNW 9.2 mph - N/A   Clear
3:33 PM 35.6 °F 29.9 °F 14.0 °F 41% 30.11 in 10.0 mi NW 6.9 mph 16.1 mph N/A   Clear
3:53 PM 35.6 °F 29.9 °F 14.0 °F 41% 30.11 in 10.0 mi NW 6.9 mph - N/A   Clear
4:13 PM 35.6 °F 28.6 °F 12.2 °F 38% 30.11 in 10.0 mi NW 9.2 mph - N/A   Clear
4:33 PM 35.6 °F 28.6 °F 12.2 °F 38% 30.11 in 10.0 mi NW 9.2 mph - N/A   Clear
4:53 PM 37.4 °F 32.1 °F 12.2 °F 36% 30.11 in 10.0 mi NNW 6.9 mph - N/A   Scattered Clouds
5:13 PM 35.6 °F 29.9 °F 14.0 °F 41% 30.12 in 10.0 mi NW 6.9 mph - N/A   Mostly Cloudy
5:33 PM 33.8 °F 28.6 °F 14.0 °F 44% 30.12 in 10.0 mi NW 5.8 mph - N/A   Mostly Cloudy
5:54 PM 33.8 °F 30.8 °F 15.8 °F 48% 30.12 in 10.0 mi NNW 3.5 mph - N/A   Overcast
6:13 PM 33.8 °F 29.6 °F 14.0 °F 44% 30.13 in 10.0 mi NW 4.6 mph - N/A   Overcast
6:33 PM 33.8 °F 29.6 °F 15.8 °F 48% 30.13 in 10.0 mi NNW 4.6 mph - N/A   Overcast
6:53 PM 33.8 °F 29.6 °F 15.8 °F 48% 30.13 in 10.0 mi NW 4.6 mph - N/A   Overcast
7:13 PM 33.8 °F 29.6 °F 15.8 °F 48% 30.14 in 10.0 mi NW 4.6 mph - N/A   Overcast
7:33 PM 32.0 °F - 15.8 °F 51% 30.14 in 10.0 mi Calm Calm - N/A   Overcast
7:53 PM 30.2 °F - 17.6 °F 60% 30.15 in 10.0 mi Calm Calm - N/A   Scattered Clouds
8:13 PM 28.4 °F 24.6 °F 17.6 °F 64% 30.15 in 10.0 mi NW 3.5 mph - N/A   Scattered Clouds
8:33 PM 28.4 °F - 17.6 °F 64% 30.15 in 10.0 mi Calm Calm - N/A   Scattered Clouds
8:53 PM 30.2 °F 25.4 °F 15.8 °F 55% 30.16 in 10.0 mi NW 4.6 mph - N/A   Mostly Cloudy
9:13 PM 30.2 °F 25.4 °F 15.8 °F 55% 30.16 in 10.0 mi NW 4.6 mph - N/A   Overcast
9:33 PM 28.4 °F 24.6 °F 15.8 °F 59% 30.16 in 10.0 mi NW 3.5 mph - N/A   Mostly Cloudy
9:53 PM 26.6 °F - 17.6 °F 69% 30.17 in 10.0 mi Calm Calm - N/A   Mostly Cloudy
10:14 PM 26.6 °F - 15.8 °F 64% 30.17 in 10.0 mi Calm Calm - N/A   Scattered Clouds
10:33 PM 28.4 °F - 15.8 °F 59% 30.17 in 10.0 mi Calm Calm - N/A   Mostly Cloudy
10:53 PM 28.4 °F - 17.6 °F 64% 30.17 in 10.0 mi Calm Calm - N/A   Overcast
11:13 PM 28.4 °F - 17.6 °F 64% 30.17 in 10.0 mi Calm Calm - N/A   Overcast
11:33 PM 26.6 °F - 17.6 °F 69% 30.17 in 10.0 mi Calm Calm - N/A   Overcast
11:53 PM 26.6 °F - 17.6 °F 69% 30.17 in 10.0 mi Calm Calm - N/A   Overcast